User: anonymous   Login
Location: Béaulencourt
(50.0796°N, 2.8795°E)
Time: 23:14:00
(UTC+00:00)
Language:

Cosmos 2263 - Orbit

View from above orbital plane
View from above orbital plane
View from above satellite
View from above satellite

Ground track
Ground track

The orbit is defined by the following mean orbital elements,

1 22802U          26074.48569156 +.00000000 +00000-0 +53360-4 0 00001
2 22802  70.9273  89.6178 0021015 114.7992 245.5319 14.13647720    09
Epoch (UTC): 15 March 2026 11:39:23
Eccentricity: 0.0021015
inclination: 70.9273°
perigee height: 832 km
apogee height: 862 km
right ascension of ascending node: 89.6178°
argument of perigee: 114.7992°
revolutions per day: 14.13647720
mean anomaly at epoch: 245.5319°

The dashed part of the orbit path shows where the satellite is in the earth's shadow,  

DLR